Weather History for KIND - April, 2013

Change the Weather History Date:

Thursday, April 11, 2013

  Actual Average Record
Temperature  
Mean Temperature 56 °F 52 °F  
Max Temperature 66 °F 62 °F 89 °F (1930)
Min Temperature 45 °F 41 °F 24 °F (1973)
Degree Days  
Heating Degree Days 9 14  
Month to date heating degree days 141 169  
Since 1 July heating degree days 5058 5019  
Cooling Degree Days 0 0  
Month to date cooling degree days 9 0  
Year to date cooling degree days 9 2  
Growing Degree Days 8 (Base 50)    
Moisture  
Dew Point 57 °F    
Average Humidity 87    
Maximum Humidity 100    
Minimum Humidity 73    
Precipitation  
Precipitation 0.91 in 0.12 in 1.72 in (1944)
Month to date precipitation 0.96 1.35  
Year to date precipitation 10.70 9.89  
Snow  
Snow 0.00 in 0.00 in 1.70 in (1940)
Month to date snowfall 0.0 0.1  
Since 1 July snowfall 34.5 25.8  
Snow Depth 0.00 in    
Sea Level Pressure  
Sea Level Pressure 29.64 in    
Wind  
Wind Speed 12 mph (SSW)    
Max Wind Speed 23 mph    
Max Gust Speed 33 mph    
Visibility 8 miles    
Events Rain , Thunderstorm    
T = Trace of Precipitation, MM = Missing Value Source: NWS Daily Summary

Daily Weather History Graph

Daily Weather History Graph

Search for Another Location

Airport or City:

Trip Planner

Search our weather history database for the weather conditions in past years. The results will help you decide how hot, cold, wet, or windy it might be!

Date:

Astronomy

Apr. 11, 2013 Rise Set
Actual Time 7:13 AM EDT 8:19 PM EDT
Civil Twilight 6:45 AM EDT 8:47 PM EDT
Nautical Twilight 6:12 AM EDT 9:20 PM EDT
Astronomical Twilight 5:38 AM EDT 9:54 PM EDT
Moon 7:44 AM EDT (4/11) 9:53 PM EDT (4/11)
Length of Visible Light 14h 01m
Length of Day
13h 06m
New Moon, 2% of the Moon is Illuminated
Apr 11
New Moon
Apr 18
First Quarter
Apr 25
Full
May 2
Last Quarter
May 9
New

Hourly Weather History & Observations

Time (EDT) Temp. Dew Point Humidity Pressure Visibility Wind Dir Wind Speed Gust Speed Precip Events Conditions
12:54 AM 62.1 °F 57.9 °F 86% 29.70 in 10.0 mi ESE 13.8 mph - N/A   Overcast
1:54 AM 63.0 °F 57.9 °F 84% 29.68 in 10.0 mi SE 12.7 mph - N/A   Overcast
2:01 AM 62.6 °F 57.2 °F 82% 29.75 in 10.0 mi West 23.0 mph 28.8 mph N/A   Overcast
2:21 AM 62.6 °F 57.2 °F 82% 29.76 in 10.0 mi West 19.6 mph 25.3 mph 0.00 in Rain , Thunderstorm Light Thunderstorms and Rain
2:54 AM 61.0 °F 59.0 °F 93% 29.77 in 7.0 mi West 13.8 mph - 0.12 in Rain Light Rain
3:54 AM 59.0 °F 57.9 °F 96% 29.74 in 4.0 mi NW 3.5 mph - 0.22 in Rain Rain
4:43 AM 59.0 °F 57.2 °F 94% 29.77 in 2.5 mi SSE 8.1 mph - 0.08 in Rain Rain
4:54 AM 59.0 °F 57.9 °F 96% 29.75 in 5.0 mi SSE 6.9 mph - 0.14 in Rain Light Rain
5:54 AM 57.9 °F 57.9 °F 100% 29.69 in 10.0 mi East 8.1 mph - 0.14 in Rain Light Rain
6:54 AM 59.0 °F 57.9 °F 96% 29.66 in 10.0 mi ESE 8.1 mph - 0.00 in   Overcast
7:54 AM 59.0 °F 57.9 °F 96% 29.66 in 10.0 mi SE 9.2 mph - N/A   Overcast
8:52 AM 59.0 °F 57.2 °F 94% 29.67 in 10.0 mi SE 11.5 mph - N/A   Overcast
8:54 AM 59.0 °F 57.9 °F 96% 29.67 in 10.0 mi SE 10.4 mph - N/A   Overcast
9:54 AM 61.0 °F 59.0 °F 93% 29.65 in 10.0 mi SE 12.7 mph 19.6 mph N/A   Overcast
10:54 AM 63.0 °F 59.0 °F 87% 29.65 in 10.0 mi SSE 15.0 mph - N/A   Overcast
11:15 AM 62.6 °F 59.0 °F 88% 29.66 in 10.0 mi SSE 13.8 mph - N/A   Overcast
11:54 AM 64.0 °F 59.0 °F 84% 29.66 in 10.0 mi South 18.4 mph 24.2 mph N/A   Overcast
12:13 PM 64.4 °F 59.0 °F 83% 29.68 in 10.0 mi South 16.1 mph - N/A   Overcast
12:54 PM 66.2 °F 57.2 °F 73% 29.67 in 10.0 mi South 16.1 mph - N/A   Overcast
1:54 PM 66.0 °F 57.9 °F 75% 29.62 in 10.0 mi South 19.6 mph 24.2 mph 0.00 in Rain Light Rain
2:54 PM 64.0 °F 59.0 °F 84% 29.62 in 10.0 mi South 16.1 mph - 0.01 in Rain Light Rain
3:54 PM 63.0 °F 60.1 °F 90% 29.61 in 8.0 mi SSW 10.4 mph - 0.05 in Rain Light Rain
4:54 PM 62.1 °F 60.1 °F 93% 29.61 in 4.0 mi SSW 10.4 mph - 0.04 in Rain Light Rain
5:32 PM 60.8 °F 59.0 °F 94% 29.60 in 6.0 mi South 10.4 mph - 0.05 in Rain Light Rain
5:54 PM 61.0 °F 59.0 °F 93% 29.57 in 4.0 mi South 10.4 mph - 0.07 in Rain Light Rain
6:07 PM 60.8 °F 57.2 °F 88% 29.55 in 6.0 mi South 9.2 mph - 0.01 in Rain Light Rain
6:54 PM 60.1 °F 57.9 °F 93% 29.57 in 7.0 mi South 15.0 mph - 0.06 in Rain Light Rain
7:39 PM 59.0 °F 57.2 °F 94% 29.58 in 10.0 mi SSW 9.2 mph - 0.00 in   Overcast
7:54 PM 55.0 °F 52.0 °F 89% 29.56 in 10.0 mi WNW 15.0 mph - 0.00 in   Overcast
8:02 PM 53.6 °F 51.8 °F 94% 29.56 in 10.0 mi WNW 11.5 mph - N/A   Overcast
8:17 PM 53.6 °F 51.8 °F 94% 29.57 in 10.0 mi West 11.5 mph - 0.00 in Rain Light Rain
8:54 PM 53.1 °F 51.1 °F 93% 29.55 in 9.0 mi WNW 9.2 mph - 0.00 in   Overcast
9:52 PM 51.8 °F 51.8 °F 100% 29.56 in 7.0 mi WNW 8.1 mph - 0.00 in Rain Light Rain
9:54 PM 52.0 °F 51.1 °F 97% 29.57 in 7.0 mi WNW 6.9 mph - 0.00 in Rain Light Rain
10:54 PM 51.1 °F 50.0 °F 96% 29.59 in 7.0 mi WNW 9.2 mph - 0.01 in   Light Drizzle
11:54 PM 48.0 °F 46.0 °F 93% 29.59 in 4.0 mi WNW 17.3 mph - 0.03 in Rain Light Rain